Tracking 35331 objects as of 17-Sep-2026
HD Live streaming from Space Station
objects crossing your sky now

DELTA 1 DEB

Track DELTA 1 DEB now!
10-day predictions


NORAD ID: 39095
Int'l Code: 1973-086HH
Launch date: November 6, 1973
Source: United States (US)
Launch site: AIR FORCE WESTERN TEST RANGE (AFWTR)

Note: This is SATELLITE DEBRIS
Your satellite tracking list
Your tracking list is empty




NASA's NSSDC Master Catalog

Two Line Element Set (TLE):
1 39095U 73086HH  26256.33391213 -.00000003  00000-0  35590-3 0  9995
2 39095 102.4828 274.7022 0059167  84.4406 276.3395 12.31008932588297
Source of the keplerian elements: AFSPC